Location: Unspecified
(0.0000°N, 0.0000°E)
Time: 09:00:10
(UTC+00:00)

deb Midas III - Pass Details

Date: 18 March 2026
Orbit: 3314 x 3545 km, 91.1° (Epoch: 19 April)

Event Time Altitude Azimuth Distance (km) Brightness Sun altitude
Rises 03:34:37 0° 202° (SSW) 7,607 ? -38.4°
Reaches altitude 10° 03:40:30 10° 215° (SW) 6,564 ? -36.9°
Enters shadow 03:41:43 12° 218° (SW) 6,376 ? -36.6°
Exits shadow 04:10:28 - 319° (NW) 7,186 ? -29.4°
Sets 04:11:54 0° 322° (NW) 7,437 ? -29.1°
